TimeEST,TemperatureF,Dew PointF,Humidity,Sea Level PressureIn,VisibilityMPH,Wind Direction,Wind SpeedMPH,Gust SpeedMPH,PrecipitationIn,Events,Conditions,WindDirDegrees,DateUTC
12:04 AM,60.8,59.0,94,30.10,10.0,NE,6.9,-,0.01,Rain,Light Rain,50,2014-01-02 05:04:00
12:58 AM,60.1,59.0,96,30.06,10.0,NE,8.1,-,0.01,,Overcast,50,2014-01-02 05:58:00
1:04 AM,60.8,59.0,94,30.06,10.0,ENE,6.9,-,N/A,,Overcast,60,2014-01-02 06:04:00
1:11 AM,60.8,59.0,94,30.06,10.0,ENE,5.8,-,N/A,,Overcast,60,2014-01-02 06:11:00
1:47 AM,60.8,60.8,100,30.05,10.0,North,4.6,-,N/A,,Overcast,360,2014-01-02 06:47:00
1:58 AM,61.0,60.1,97,30.05,10.0,NNW,3.5,-,N/A,,Overcast,340,2014-01-02 06:58:00
2:07 AM,60.8,60.8,100,30.04,10.0,NNW,5.8,-,N/A,,Overcast,340,2014-01-02 07:07:00
2:32 AM,60.8,60.8,100,30.03,10.0,North,3.5,-,N/A,,Overcast,360,2014-01-02 07:32:00
2:58 AM,61.0,60.1,97,30.02,10.0,NNW,4.6,-,N/A,,Overcast,330,2014-01-02 07:58:00
3:02 AM,60.8,60.8,100,30.02,10.0,NNW,4.6,-,N/A,,Overcast,330,2014-01-02 08:02:00
3:58 AM,61.0,60.1,97,30.00,3.0,East,3.5,-,0.00,Rain,Light Rain,90,2014-01-02 08:58:00
4:58 AM,61.0,60.1,97,29.98,6.0,WNW,4.6,-,0.01,,Overcast,300,2014-01-02 09:58:00
5:58 AM,61.0,60.1,97,29.97,4.0,NW,3.5,-,0.00,,Overcast,310,2014-01-02 10:58:00
6:14 AM,60.8,60.8,100,29.97,2.5,NNW,5.8,-,N/A,,Overcast,330,2014-01-02 11:14:00
6:36 AM,60.8,60.8,100,29.97,3.0,NNW,5.8,-,N/A,,Overcast,330,2014-01-02 11:36:00
6:52 AM,60.8,60.8,100,29.97,1.0,North,9.2,-,N/A,,Overcast,10,2014-01-02 11:52:00
6:58 AM,61.0,60.1,97,29.97,1.0,North,8.1,-,0.00,Rain,Light Rain,360,2014-01-02 11:58:00
7:49 AM,57.2,57.2,100,29.98,2.0,NNE,5.8,-,0.09,Rain,Light Rain,20,2014-01-02 12:49:00
7:58 AM,57.9,57.9,100,29.98,6.0,North,8.1,-,0.09,,Overcast,10,2014-01-02 12:58:00
8:15 AM,59.0,57.2,94,29.97,2.0,North,6.9,-,0.01,Rain,Light Rain,10,2014-01-02 13:15:00
8:58 AM,59.0,57.9,96,29.99,2.0,NW,9.2,-,0.11,Rain,Light Rain,320,2014-01-02 13:58:00
9:15 AM,59.0,57.2,94,29.99,2.0,WNW,9.2,-,0.02,Rain,Light Rain,300,2014-01-02 14:15:00
9:52 AM,59.0,57.2,94,30.00,2.0,NW,8.1,-,0.03,Rain,Light Rain,310,2014-01-02 14:52:00
9:56 AM,59.0,57.2,94,30.00,1.0,NW,8.1,-,0.03,Rain,Light Rain,310,2014-01-02 14:56:00
9:58 AM,59.0,57.9,96,30.00,1.0,NW,9.2,-,0.03,Rain,Light Rain,320,2014-01-02 14:58:00
10:02 AM,59.0,59.0,100,30.00,1.5,NW,8.1,-,0.00,Rain,Light Rain,310,2014-01-02 15:02:00
10:42 AM,60.8,57.2,88,29.97,1.5,NNW,5.8,-,0.00,,Overcast,340,2014-01-02 15:42:00
10:53 AM,60.8,57.2,88,29.97,2.0,NW,4.6,-,0.00,,Overcast,320,2014-01-02 15:53:00
10:58 AM,60.1,57.9,93,29.96,2.0,Calm,Calm,-,0.00,,Overcast,0,2014-01-02 15:58:00
11:58 AM,61.0,59.0,93,29.91,1.0,SSE,4.6,-,0.04,Rain,Light Rain,150,2014-01-02 16:58:00
11:59 AM,60.8,59.0,94,29.91,5.0,SSE,4.6,-,0.01,Rain,Light Rain,150,2014-01-02 16:59:00
12:03 PM,60.8,59.0,94,29.91,1.0,South,4.6,-,0.02,Rain,Rain,170,2014-01-02 17:03:00
12:51 PM,62.6,60.8,94,29.87,3.0,Calm,Calm,-,0.13,Rain,Light Rain,0,2014-01-02 17:51:00
12:57 PM,62.1,61.0,96,29.87,2.0,South,4.6,-,0.13,Rain,Light Rain,170,2014-01-02 17:57:00
1:01 PM,62.6,60.8,94,29.87,2.0,SSW,3.5,-,0.00,,Overcast,200,2014-01-02 18:01:00
1:58 PM,63.0,62.1,97,29.84,2.0,SSW,4.6,-,0.07,Rain,Light Rain,200,2014-01-02 18:58:00
2:58 PM,64.9,64.0,97,29.81,5.0,WSW,5.8,-,0.01,,Overcast,250,2014-01-02 19:58:00
3:36 PM,64.4,64.4,100,29.82,5.0,WSW,5.8,-,N/A,,Overcast,240,2014-01-02 20:36:00
3:58 PM,64.9,64.0,97,29.82,5.0,WSW,5.8,-,N/A,,Overcast,250,2014-01-02 20:58:00
4:58 PM,64.9,63.0,93,29.82,5.0,WSW,5.8,-,N/A,,Overcast,250,2014-01-02 21:58:00
5:52 PM,64.4,62.6,94,29.83,5.0,WSW,11.5,-,N/A,,Overcast,240,2014-01-02 22:52:00
5:58 PM,64.9,63.0,93,29.82,5.0,WSW,9.2,19.6,N/A,,Overcast,240,2014-01-02 22:58:00
6:58 PM,64.9,63.0,93,29.82,6.0,WSW,8.1,-,0.00,,Overcast,250,2014-01-02 23:58:00
7:58 PM,64.9,64.0,97,29.83,10.0,WSW,11.5,17.3,N/A,,Overcast,250,2014-01-03 00:58:00
8:51 PM,66.2,62.6,88,29.83,10.0,West,13.8,17.3,N/A,,Overcast,260,2014-01-03 01:51:00
8:58 PM,66.0,63.0,90,29.84,10.0,West,6.9,17.3,N/A,,Overcast,270,2014-01-03 01:58:00
9:05 PM,64.4,60.8,88,29.85,7.0,NW,21.9,33.4,0.00,Rain,Light Rain,310,2014-01-03 02:05:00
9:09 PM,62.6,59.0,88,29.85,7.0,NW,21.9,33.4,0.00,Rain,Light Rain,310,2014-01-03 02:09:00
9:14 PM,60.8,57.2,88,29.85,10.0,WNW,11.5,28.8,0.00,Rain,Light Rain,300,2014-01-03 02:14:00
9:43 PM,60.8,57.2,88,29.88,4.0,WNW,17.3,26.5,0.01,Rain,Light Rain,300,2014-01-03 02:43:00
9:58 PM,57.0,54.0,89,29.89,10.0,NW,16.1,33.4,0.01,Rain,Light Rain,310,2014-01-03 02:58:00
10:07 PM,55.4,53.6,94,29.90,10.0,WNW,9.2,-,0.00,,Overcast,290,2014-01-03 03:07:00
10:58 PM,57.0,52.0,83,29.93,10.0,WNW,11.5,18.4,0.00,,Overcast,300,2014-01-03 03:58:00
11:22 PM,57.2,51.8,82,29.94,10.0,WNW,11.5,19.6,N/A,,Overcast,300,2014-01-03 04:22:00
11:52 PM,55.4,48.2,77,29.95,10.0,WNW,13.8,19.6,N/A,,Overcast,300,2014-01-03 04:52:00
11:56 PM,55.4,48.2,77,29.95,10.0,WNW,10.4,19.6,N/A,,Overcast,300,2014-01-03 04:56:00
11:58 PM,55.9,48.9,77,29.96,10.0,WNW,9.2,17.3,N/A,,Overcast,300,2014-01-03 04:58:00